PDT,Max TemperatureF,Mean TemperatureF,Min TemperatureF,Max Dew PointF,MeanDew PointF,Min DewpointF,Max Humidity, Mean Humidity, Min Humidity, Max Sea Level PressureIn, Mean Sea Level PressureIn, Min Sea Level PressureIn, Max VisibilityMiles, Mean VisibilityMiles, Min VisibilityMiles, Max Wind SpeedMPH, Mean Wind SpeedMPH, Max Gust SpeedMPH,PrecipitationIn, CloudCover, Events, WindDirDegrees
2013-6-1,71,59,46,42,38,31,76,51,26,30.22,30.11,29.97,10,10,10,12,5,16,0.00,5,,129
2013-6-2,63,56,48,48,44,41,86,67,48,29.95,29.93,29.90,10,10,4,18,6,21,0.10,5,Rain,26
2013-6-3,72,59,46,46,43,35,93,60,27,30.05,29.98,29.93,10,10,10,18,7,23,0.00,3,Fog,178
2013-6-4,75,62,48,46,43,39,86,57,27,30.13,30.08,30.04,10,10,10,13,5,18,0.00,2,,43
2013-6-5,82,68,53,46,44,41,71,47,23,30.04,29.99,29.91,10,10,10,18,7,30,0.00,4,,198
2013-6-6,83,71,59,48,46,44,60,43,26,29.97,29.92,29.86,10,10,10,16,7,21,0.00,5,,207
2013-6-7,83,69,54,49,43,35,67,44,21,29.89,29.85,29.81,10,10,10,35,17,39,0.00,4,,227
2013-6-8,78,63,47,41,36,30,71,45,18,30.02,29.95,29.88,10,10,10,22,10,26,0.00,1,,210
2013-6-9,74,63,52,42,33,21,64,39,14,29.90,29.87,29.82,10,10,10,22,12,33,0.00,1,,229
2013-6-10,75,61,46,35,33,29,60,40,20,29.86,29.80,29.74,10,10,10,12,6,17,0.00,1,,198
2013-6-11,68,58,48,42,35,29,66,46,26,29.99,29.87,29.75,10,10,10,22,11,32,0.00,3,,187
2013-6-12,67,56,44,38,35,32,71,50,29,30.06,30.02,29.98,10,10,10,15,9,21,0.00,3,,199
2013-6-13,68,56,44,40,37,32,76,52,28,30.06,30.03,30.00,10,10,10,20,9,26,0.01,4,,189
2013-6-14,68,57,45,41,37,33,83,56,29,30.14,30.09,30.05,10,10,10,21,10,26,0.00,4,,201
2013-6-15,78,62,46,41,36,31,76,47,18,30.04,29.99,29.94,10,10,10,13,4,18,0.00,4,,59
2013-6-16,85,70,54,42,39,35,64,41,18,30.02,29.96,29.90,10,10,10,16,4,20,0.00,6,,43
2013-6-17,81,70,59,49,45,40,60,43,25,29.97,29.90,29.80,10,10,7,20,8,24,0.02,5,Rain-Thunderstorm,248
2013-6-18,64,58,52,53,50,46,83,68,52,29.91,29.87,29.81,10,10,10,22,10,28,0.05,8,Rain-Thunderstorm,308
2013-6-19,55,52,49,52,49,47,93,90,86,29.86,29.82,29.77,10,8,2,17,9,23,0.16,8,Rain,203
2013-6-20,50,49,48,47,46,45,93,90,86,30.06,29.91,29.79,10,7,5,25,15,31,1.12,8,Rain,211
2013-6-21,62,55,48,47,46,43,93,74,55,30.12,30.09,30.05,10,9,4,13,5,17,0.02,7,Rain,210
2013-6-22,68,58,47,48,46,43,93,68,42,30.10,30.04,29.94,10,10,10,8,3,10,0.00,5,Fog,166
2013-6-23,74,62,50,56,47,41,89,61,33,29.93,29.78,29.62,10,10,10,12,6,16,0.01,6,Rain,86
2013-6-24,63,58,52,56,54,51,93,80,67,29.74,29.66,29.60,10,8,2,16,8,20,0.21,8,Rain,214
2013-6-25,67,58,49,54,50,47,100,78,56,29.89,29.80,29.75,10,9,1,23,8,26,0.10,6,Rain-Thunderstorm,177
2013-6-26,72,63,54,53,51,48,86,67,47,30.10,30.00,29.89,10,10,10,17,8,20,T,7,,193
2013-6-27,79,68,56,57,55,54,93,68,42,30.19,30.15,30.11,10,10,10,16,5,18,0.00,6,Fog,24
2013-6-28,88,73,57,56,54,52,87,59,30,30.22,30.15,30.05,10,10,10,10,4,14,0.00,1,,27
2013-6-29,76,69,62,63,60,57,87,74,61,30.13,30.04,29.98,10,10,2,25,7,30,0.06,6,Rain-Thunderstorm,25
2013-6-30,91,75,59,61,54,44,93,57,20,30.06,30.01,29.96,10,10,7,9,3,14,0.00,1,Fog,37